Tracking 19562 objects as of 22-Mar-2019
HD Live streaming from Space Station
objects crossing your sky now

ORSTED

Track ORSTED now!
10-day predictions
ORSTED is classified as:


NORAD ID: 25635
Int'l Code: 1999-008B
Perigee: 640.3 km
Apogee: 837.4 km
Inclination: 96.5 °
Period: 99.4 minutes
Semi major axis: 7109 km
RCS: 0.3282 m2 (medium)
Launch date: February 23, 1999
Source: Denmark (DEN)
Launch site: AIR FORCE WESTERN TEST RANGE (AFWTR)

Magnetometer and a star camera for measurements of the geomagnetic field.
aabbcc
Your satellite tracking list
Your tracking list is empty




NASA's NSSDC Master Catalog

Two Line Element Set (TLE):
1 25635U 99008B   19080.89239637 +.00000048 +00000-0 +19288-4 0  9996
2 25635 096.4716 205.8147 0138593 358.0714 001.9932 14.48135674058976
Source of the keplerian elements: AFSPC